This is the latest recevied weather packets stored in our database for station/object WD7CGF. If no packets are shown the sender has not sent any weather packets the latest 1 day(s).
| Time | Temp. | Humidity | Pressure | Rain* | Wind** | Luminosity | Snow |
|---|---|---|---|---|---|---|---|
| 1778024915 | 27.78° C | 32% | 1009.2 hPa | 0 mm | 0.89 m/s, 235° | - | - |
| 1778024320 | 27.78° C | 32% | 1009.2 hPa | 0 mm | 1.34 m/s, 234° | - | - |
| 1778023702 | 27.78° C | 33% | 1009.2 hPa | 0 mm | 0.89 m/s, 24° | - | - |
| 1778023113 | 27.78° C | 33% | 1009.2 hPa | 0 mm | 1.34 m/s, 75° | - | - |
| 1778022501 | 27.78° C | 33% | 1009.1 hPa | 0 mm | 0.89 m/s, 159° | - | - |
| 1778021909 | 27.78° C | 32% | 1009.2 hPa | 0 mm | 0.45 m/s, 121° | - | - |
| 1778021306 | 27.22° C | 32% | 1009.2 hPa | 0 mm | 0 m/s | - | - |
| 1778020717 | 27.22° C | 33% | 1009.4 hPa | 0 mm | 0.89 m/s, 82° | - | - |
| 1778020107 | 27.78° C | 30% | 1009.4 hPa | 0 mm | 1.34 m/s, 55° | - | - |
| 1778019510 | 28.33° C | 32% | 1009.4 hPa | 0 mm | 1.79 m/s, 96° | - | - |
| 1778018918 | 28.33° C | 31% | 1009.4 hPa | 0 mm | 0.89 m/s, 166° | - | - |
| 1778018309 | 27.78° C | 32% | 1009.5 hPa | 0 mm | 0.89 m/s, 140° | - | - |
| 1778017720 | 27.78° C | 33% | 1009.5 hPa | 0 mm | 1.34 m/s, 80° | - | - |
| 1778017112 | 27.78° C | 30% | 1009.5 hPa | 0 mm | 1.34 m/s, 165° | - | - |
| 1778016506 | 28.33° C | 33% | 1009.9 hPa | 0 mm | 0.45 m/s, 111° | - | - |
| 1778015918 | 27.78° C | 33% | 1009.9 hPa | 0 mm | 0.45 m/s, 333° | - | - |
| 1778015301 | 27.22° C | 34% | 1010 hPa | 0 mm | 1.34 m/s, 99° | - | - |
| 1778014714 | 26.67° C | 38% | 1010.1 hPa | 0 mm | 0.89 m/s, 138° | - | - |
| 1778014102 | 27.22° C | 34% | 1010.1 hPa | 0 mm | 0.45 m/s, 129° | - | - |
| 1778013513 | 27.22° C | 35% | 1010.2 hPa | 0 mm | 0.89 m/s, 17° | - | - |
| 1778012923 | 27.22° C | 34% | 1010.2 hPa | 0 mm | 0.89 m/s, 12° | - | - |
| 1778012311 | 26.67° C | 37% | 1010.2 hPa | 0 mm | 0.89 m/s, 94° | - | - |
| 1778011701 | 26.11° C | 40% | 1010.4 hPa | 0 mm | 0.89 m/s, 52° | - | - |
| 1778011117 | 26.11° C | 38% | 1010.6 hPa | 0 mm | 1.34 m/s, 153° | - | - |
| 1778010510 | 26.11° C | 39% | 1010.6 hPa | 0 mm | 0.89 m/s, 22° | - | - |
* Rain latest hour (hover to see other rain measurements)
** Current wind speed in m/s (hover to see current wind gust speed)